Hourly Weather Kragi

Today, 30 October, Friday

Time Temperature Precipitation Wind Pressure Humidity
00:00 +6°C° 0 mm 4 mps 747 mmHg 90%
01:00 +6°C° 0 mm 4 mps 747 mmHg 90%
02:00 +6°C° 0 mm 4 mps 748 mmHg 90%
03:00 +6°C° 0 mm 4 mps 748 mmHg 90%
04:00 +7°C° 0 mm 3 mps 748 mmHg 90%
05:00 +5°C° 0 mm 3 mps 748 mmHg 91%
06:00 +6°C° 0 mm 2 mps 748 mmHg 93%
07:00 +5°C° 0 mm 2 mps 748 mmHg 95%
08:00 +6°C° 0 mm 2 mps 748 mmHg 91%
09:00 +7°C° 0 mm 2 mps 748 mmHg 87%
10:00 +8°C° 0 mm 2 mps 748 mmHg 83%
11:00 +8°C° 0.1 mm 2 mps 748 mmHg 85%
12:00 +8°C° 0.1 mm 2 mps 747 mmHg 86%
13:00 +8°C° 0.1 mm 2 mps 747 mmHg 87%
14:00 +8°C° 0.6 mm 2 mps 747 mmHg 90%
15:00 +8°C° 0.6 mm 2 mps 747 mmHg 93%
16:00 +8°C° 0.6 mm 2 mps 747 mmHg 95%
17:00 +8°C° 0.6 mm 2 mps 747 mmHg 96%
18:00 +8°C° 0.6 mm 2 mps 747 mmHg 96%
19:00 +8°C° 0.6 mm 2 mps 748 mmHg 97%
20:00 +8°C° 0.1 mm 2 mps 748 mmHg 96%
21:00 +8°C° 0.1 mm 2 mps 749 mmHg 96%
22:00 +9°C° 0.1 mm 1 mps 749 mmHg 96%
23:00 +9°C° 0.1 mm 1 mps 750 mmHg 96%

Tomorrow, 31 October, Saturday

Time Temperature Precipitation Wind Pressure Humidity
00:00 +9°C° 0.1 mm 1 mps 750 mmHg 96%
01:00 +9°C° 0.1 mm 1 mps 750 mmHg 97%
02:00 +9°C° 0.1 mm 1 mps 751 mmHg 96%
03:00 +9°C° 0.1 mm 1 mps 751 mmHg 96%
04:00 +9°C° 0.1 mm 1 mps 751 mmHg 96%
05:00 +9°C° 0 mm 1 mps 752 mmHg 96%
06:00 +9°C° 0 mm 1 mps 752 mmHg 96%
07:00 +7°C° 0 mm 2 mps 753 mmHg 96%
08:00 +8°C° 0 mm 2 mps 753 mmHg 93%
09:00 +9°C° 0 mm 2 mps 753 mmHg 90%
10:00 +10°C° 0 mm 2 mps 753 mmHg 87%
11:00 +10°C° 0 mm 2 mps 753 mmHg 84%
12:00 +12°C° 0 mm 2 mps 753 mmHg 82%
13:00 +12°C° 0 mm 3 mps 754 mmHg 79%
14:00 +12°C° 0 mm 2 mps 753 mmHg 82%
15:00 +12°C° 0 mm 2 mps 753 mmHg 84%
16:00 +10°C° 0 mm 2 mps 753 mmHg 87%
17:00 +10°C° 0 mm 2 mps 753 mmHg 89%
18:00 +9°C° 0 mm 2 mps 753 mmHg 90%
19:00 +9°C° 0 mm 3 mps 753 mmHg 92%
20:00 +9°C° 0 mm 3 mps 753 mmHg 91%
21:00 +8°C° 0 mm 4 mps 753 mmHg 89%
22:00 +8°C° 0 mm 4 mps 753 mmHg 88%
23:00 +8°C° 0 mm 4 mps 752 mmHg 87%

Day after tomorrow, 1 November, Sunday

Time Temperature Precipitation Wind Pressure Humidity
00:00 +8°C° 0 mm 4 mps 752 mmHg 86%
01:00 +7°C° 0 mm 5 mps 752 mmHg 85%
02:00 +7°C° 0 mm 5 mps 752 mmHg 84%
03:00 +7°C° 0 mm 5 mps 751 mmHg 84%
04:00 +7°C° 0 mm 5 mps 751 mmHg 83%
05:00 +7°C° 0 mm 5 mps 751 mmHg 83%
06:00 +7°C° 0 mm 5 mps 750 mmHg 82%
07:00 +7°C° 0 mm 5 mps 750 mmHg 82%
08:00 +7°C° 0 mm 5 mps 750 mmHg 81%
09:00 +8°C° 0 mm 5 mps 750 mmHg 79%
10:00 +8°C° 0 mm 5 mps 749 mmHg 77%
11:00 +9°C° 0 mm 5 mps 749 mmHg 77%
12:00 +9°C° 0 mm 5 mps 748 mmHg 77%
13:00 +10°C° 0 mm 5 mps 748 mmHg 76%
14:00 +10°C° 0.1 mm 5 mps 748 mmHg 79%
15:00 +11°C° 0.1 mm 4 mps 747 mmHg 82%
16:00 +11°C° 0.1 mm 4 mps 747 mmHg 85%
17:00 +11°C° 0.2 mm 4 mps 746 mmHg 87%
18:00 +11°C° 0.2 mm 4 mps 746 mmHg 90%
19:00 +10°C° 0.2 mm 5 mps 746 mmHg 93%
20:00 +11°C° 0.4 mm 4 mps 746 mmHg 93%
21:00 +11°C° 0.4 mm 4 mps 745 mmHg 94%
22:00 +11°C° 0.4 mm 4 mps 745 mmHg 94%
23:00 +11°C° 0.1 mm 4 mps 745 mmHg 94%

2 November, Monday

Time Temperature Precipitation Wind Pressure Humidity
00:00 +11°C° 0.1 mm 4 mps 745 mmHg 94%
01:00 +11°C° 0.1 mm 4 mps 744 mmHg 94%
02:00 +11°C° 0 mm 4 mps 744 mmHg 94%
03:00 +11°C° 0 mm 4 mps 744 mmHg 95%
04:00 +12°C° 0 mm 4 mps 744 mmHg 95%
05:00 +12°C° 0 mm 4 mps 744 mmHg 95%
06:00 +12°C° 0 mm 4 mps 744 mmHg 95%
07:00 +12°C° 0 mm 4 mps 744 mmHg 95%
08:00 +12°C° 0.2 mm 4 mps 744 mmHg 94%
09:00 +13°C° 0.2 mm 5 mps 744 mmHg 93%
10:00 +13°C° 0.2 mm 6 mps 744 mmHg 93%
11:00 +13°C° 0.5 mm 6 mps 744 mmHg 93%
12:00 +13°C° 0.5 mm 5 mps 744 mmHg 93%
13:00 +13°C° 0.5 mm 5 mps 743 mmHg 93%
14:00 +14°C° 0.1 mm 5 mps 743 mmHg 93%
15:00 +14°C° 0.1 mm 5 mps 743 mmHg 92%
16:00 +15°C° 0.1 mm 4 mps 743 mmHg 91%
17:00 +15°C° 0 mm 4 mps 743 mmHg 90%
18:00 +15°C° 0 mm 4 mps 743 mmHg 90%
19:00 +15°C° 0 mm 4 mps 743 mmHg 89%
20:00 +15°C° 0 mm 4 mps 743 mmHg 88%
21:00 +15°C° 0 mm 4 mps 743 mmHg 88%
22:00 +15°C° 0 mm 5 mps 743 mmHg 87%
23:00 +15°C° 0 mm 5 mps 743 mmHg 87%

3 November, Tuesday

Time Temperature Precipitation Wind Pressure Humidity
00:00 +15°C° 0 mm 5 mps 743 mmHg 87%
01:00 +15°C° 0 mm 5 mps 743 mmHg 87%
02:00 +15°C° 0 mm 5 mps 744 mmHg 86%
03:00 +15°C° 0 mm 5 mps 744 mmHg 86%
04:00 +15°C° 0 mm 5 mps 745 mmHg 86%
05:00 +14°C° 0.1 mm 5 mps 745 mmHg 83%
06:00 +13°C° 0.1 mm 5 mps 746 mmHg 81%
07:00 +12°C° 0.1 mm 5 mps 747 mmHg 78%
08:00 +12°C° 0 mm 5 mps 748 mmHg 73%
09:00 +12°C° 0 mm 5 mps 749 mmHg 67%
10:00 +10°C° 0 mm 6 mps 750 mmHg 62%
11:00 +10°C° 0 mm 5 mps 751 mmHg 61%
12:00 +12°C° 0 mm 5 mps 751 mmHg 60%
13:00 +12°C° 0 mm 5 mps 752 mmHg 59%
14:00 +11°C° 0 mm 4 mps 752 mmHg 61%
15:00 +10°C° 0 mm 3 mps 752 mmHg 62%
16:00 +10°C° 0 mm 3 mps 752 mmHg 64%
17:00 +9°C° 0 mm 2 mps 753 mmHg 67%
18:00 +8°C° 0 mm 2 mps 753 mmHg 69%
19:00 +7°C° 0 mm 2 mps 753 mmHg 72%
20:00 +7°C° 0 mm 2 mps 754 mmHg 73%
21:00 +7°C° 0 mm 2 mps 754 mmHg 75%
22:00 +6°C° 0 mm 2 mps 754 mmHg 76%
23:00 +6°C° 0 mm 2 mps 754 mmHg 77%

4 November, Wednesday

Time Temperature Precipitation Wind Pressure Humidity
00:00 +6°C° 0 mm 2 mps 755 mmHg 77%
01:00 +6°C° 0 mm 2 mps 755 mmHg 77%
02:00 +6°C° 0 mm 2 mps 755 mmHg 77%
03:00 +6°C° 0 mm 2 mps 755 mmHg 78%
04:00 +6°C° 0 mm 2 mps 755 mmHg 78%
05:00 +6°C° 0 mm 2 mps 755 mmHg 78%
06:00 +6°C° 0 mm 2 mps 756 mmHg 78%
07:00 +6°C° 0 mm 2 mps 756 mmHg 78%
08:00 +8°C° 0 mm 1 mps 756 mmHg 75%
09:00 +9°C° 0 mm 1 mps 757 mmHg 72%
10:00 +10°C° 0 mm 1 mps 757 mmHg 69%
11:00 +10°C° 0 mm 1 mps 758 mmHg 67%
12:00 +10°C° 0 mm 1 mps 758 mmHg 65%
13:00 +11°C° 0 mm 1 mps 758 mmHg 64%
14:00 +10°C° 0 mm 1 mps 758 mmHg 67%
15:00 +10°C° 0 mm 1 mps 759 mmHg 70%
16:00 +9°C° 0 mm 1 mps 759 mmHg 73%
17:00 +9°C° 0 mm 1 mps 759 mmHg 76%
18:00 +8°C° 0 mm 1 mps 760 mmHg 79%
19:00 +7°C° 0 mm 1 mps 760 mmHg 82%
20:00 +7°C° 0 mm 1 mps 761 mmHg 85%
21:00 +6°C° 0 mm 1 mps 761 mmHg 88%
22:00 +6°C° 0 mm 1 mps 761 mmHg 91%
23:00 +6°C° 0 mm 1 mps 762 mmHg 92%
Show more